Location: Risskov
(56.1972°N, 10.2480°E)
Time: 23:48:46
(UTC+00:00)

Cosmos 2322 Rocket - Pass Details

Date: 05 July 2020
Orbit: 832 x 851 km, 71.0° (Epoch: 14 August)

Event Time Altitude Azimuth Distance (km) Brightness Sun altitude
Rises 21:40:05 0° 246° (WSW) 3,375 5.3 -8.1°
Reaches altitude 10° 21:42:42 10° 255° (WSW) 2,445 4.7 -8.3°
Maximum altitude 21:47:52 37° 322° (NW) 1,286 3.9 -8.6°
Drops below altitude 10° 21:53:05 10° 29° (NNE) 2,463 5.2 -8.8°
Sets 21:55:44 0° 38° (NE) 3,403 5.8 -9.0°
